Theta_e
297 297 297 297 298 297 297 297 296 297 298 299 299 298 298 298 298 295 289 292 287 282 282 284 284 280 278 278 270 270 273 269 268 264 263 264 261 268 265 270 268 267 265 268 268 264 265 278 277 270 275 280 282 280
297 297 297 297 297 296 297 297 297 296 298 298 298 298 298 297 297 296 288 290 293 284 279 286 286 288 287 286 282 278 275 267 274 264 263 262 262 259 261 260 274 265 271 268 270 270 276 278 278 280 282 277 278 278
297 296 297 296 296 296 296 296 296 296 297 297 297 297 297 297 297 296 288 288 289 284 283 282 282 286 289 288 289 279 278 281 276 279 273 274 268 263 258 260 265 269 275 268 268 272 275 276 279 280 280 278 278 277
296 296 296 296 296 296 295 296 296 296 296 296 296 297 297 297 297 296 287 290 289 284 277 276 283 282 287 288 288 288 285 284 282 280 276 273 271 273 267 272 270 272 273 270 270 274 275 276 277 277 277 276 274 275
295 296 296 296 296 295 294 295 295 295 295 295 295 295 296 296 296 294 290 290 291 284 276 275 278 283 285 285 284 285 284 282 281 277 275 273 273 272 272 274 271 275 273 270 269 275 275 275 277 275 272 271 271 271
295 295 295 295 296 296 295 295 294 294 294 295 295 295 295 295 295 289 283 285 289 288 279 272 276 279 284 284 283 282 282 282 281 278 277 278 279 276 271 267 275 277 277 277 274 275 273 273 274 274 270 270 271 270
295 295 295 295 295 295 295 295 294 294 294 294 295 295 295 295 291 284 280 283 291 289 280 275 271 273 281 280 277 278 281 279 280 279 277 276 276 277 273 269 275 277 278 276 271 270 271 272 270 270 270 270 268 268
294 294 294 294 294 294 294 294 294 294 293 294 294 294 294 295 293 287 290 293 290 285 282 274 272 267 274 271 273 277 275 274 278 276 273 275 276 276 270 275 277 274 270 270 268 268 267 268 268 268 267 266 264 263
293 294 294 294 294 294 293 294 293 293 293 293 293 294 290 288 282 281 292 293 290 282 273 269 266 265 271 272 274 273 274 269 277 274 274 274 270 268 270 272 267 265 264 263 264 264 264 264 263 263 263 262 261 261
293 293 293 293 293 293 293 293 293 293 292 292 289 283 278 278 290 290 284 281 281 281 280 274 273 269 274 272 268 270 273 271 263 267 272 266 269 275 264 263 263 262 262 261 258 258 258 258 259 260 260 260 260 260
292 291 292 293 293 293 292 292 292 292 291 285 281 279 282 289 284 274 273 273 268 270 269 271 275 272 276 268 265 273 267 264 260 263 262 251 256 265 261 260 261 261 260 259 259 259 259 258 258 257 257 258 258 257
290 291 291 291 292 292 292 292 291 288 284 284 283 285 284 277 274 271 269 271 270 263 260 264 266 270 269 273 268 268 263 263 259 254 256 253 264 257 256 257 258 258 256 255 256 256 257 257 257 256 256 255 255 256
289 289 290 291 291 292 291 291 291 290 289 286 281 277 275 272 267 265 259 265 261 260 263 259 263 268 270 273 267 265 263 262 257 258 259 260 257 256 254 255 255 255 255 255 255 255 255 255 255 255 254 255 256 256
288 288 289 289 290 290 290 290 290 289 284 277 274 269 268 267 262 260 261 262 266 265 260 261 261 266 261 267 269 265 264 261 258 260 258 251 252 250 252 254 252 253 253 252 252 253 253 253 254 255 256 256 257 256
287 288 288 288 289 289 289 289 289 285 281 275 273 267 266 264 258 254 254 257 256 259 261 261 261 270 263 268 270 267 264 260 258 257 250 250 252 253 252 252 251 251 251 251 252 251 252 253 254 254 256 258 257 256
287 286 283 287 288 288 289 288 285 284 279 274 268 265 261 263 256 253 250 253 258 261 258 259 260 262 259 264 263 264 258 256 257 244 247 248 247 248 248 250 250 250 250 250 251 252 253 253 254 255 257 257 256 256
286 274 285 287 287 288 289 283 280 276 273 266 261 253 253 255 256 250 252 256 261 256 255 256 257 259 262 260 259 253 254 247 244 244 245 249 248 248 248 248 249 249 249 250 251 253 253 255 257 257 255 256 256 256
272 278 286 286 286 284 277 277 273 266 258 257 260 255 255 254 251 248 252 258 258 258 255 257 257 253 253 253 253 246 244 243 246 249 250 248 244 246 246 246 248 249 251 251 253 254 255 256 256 256 256 256 256 256
283 280 284 286 284 276 272 268 267 258 254 253 255 255 253 250 252 253 250 253 251 253 255 253 252 252 250 245 243 242 242 243 245 248 249 247 245 245 247 247 250 250 252 253 254 254 256 256 256 257 256 256 255 256
281 281 281 281 278 271 265 263 263 259 256 256 255 253 251 249 248 242 243 246 248 249 250 250 246 243 247 250 251 249 249 248 243 242 244 245 246 244 247 252 253 253 254 254 255 256 256 255 256 257 257 256 255 255
274 274 275 271 265 263 260 259 257 256 255 253 252 249 246 245 243 242 244 245 247 244 243 241 243 246 249 247 249 247 249 248 246 246 244 245 249 251 253 254 254 253 253 253 252 253 254 254 255 256 256 256 257 257
269 272 266 268 263 260 259 258 257 256 252 249 248 246 242 243 241 242 244 244 243 242 241 242 243 243 245 247 247 247 247 243 242 243 249 250 250 252 253 254 252 251 252 252 252 252 253 254 254 255 255 255 256 256
266 265 261 258 258 256 254 255 251 249 248 247 244 244 243 241 242 247 244 240 241 241 240 242 243 243 245 244 243 245 246 247 248 249 250 251 252 253 253 253 252 250 250 251 252 253 253 254 253 253 253 254 253 253
260 252 250 249 250 246 247 247 249 248 247 244 242 242 243 242 247 244 243 238 242 241 243 242 241 243 243 244 246 248 250 251 251 251 252 251 252 252 252 252 253 251 251 251 251 252 252 252 252 251 250 250 250 250
254 245 246 243 244 245 242 241 242 245 242 241 242 243 244 242 244 241 242 241 240 241 242 241 241 243 245 247 251 251 251 251 251 251 252 252 252 252 252 253 253 251 251 249 249 249 250 251 250 250 249 247 246 245
242 240 242 237 241 243 240 241 240 241 241 242 242 242 240 243 243 243 242 242 241 243 243 248 248 248 250 251 250 250 251 252 252 251 253 253 252 251 250 250 250 252 251 249 248 247 248 249 248 247 247 246 245 241
241 240 240 239 240 240 240 239 239 242 241 242 240 242 243 242 241 245 243 243 248 248 249 250 249 251 251 251 251 252 253 252 252 253 253 253 253 252 251 249 250 250 250 248 246 244 245 247 248 247 244 242 239 238
240 238 242 239 239 236 238 236 238 240 240 241 241 241 242 244 246 246 247 248 246 246 248 249 251 251 251 252 253 252 252 251 251 251 250 251 251 251 250 249 249 255 251 249 248 248 247 248 247 245 241 240 240 238
238 236 239 239 237 239 238 239 238 238 239 237 240 240 241 243 242 242 247 248 247 249 250 251 251 252 252 252 252 251 250 248 249 249 248 248 249 251 250 249 247 248 247 244 250 254 254 254 249 246 243 242 242 237
238 234 238 235 240 241 240 237 237 234 234 237 236 240 242 243 243 240 244 246 248 250 251 251 251 252 250 248 248 249 247 248 250 250 248 249 250 249 245 246 247 247 244 241 246 246 249 245 245 242 241 242 241 241
234 234 238 237 239 236 234 231 230 231 233 233 232 237 239 238 241 240 242 243 242 240 243 243 243 240 243 243 242 241 246 245 245 247 246 246 245 245 246 247 247 243 241 240 241 240 243 242 241 241 242 243 243 244
233 234 238 241 239 235 232 232 231 234 232 234 236 230 236 237 240 244 242 242 241 242 246 244 242 248 246 248 243 244 248 245 241 246 246 246 247 247 248 247 245 243 242 244 244 243 243 244 244 244 244 244 244 244
231 230 229 234 237 238 234 235 235 236 234 234 235 231 231 236 242 245 243 241 244 246 247 247 248 244 244 245 246 247 248 248 247 253 254 253 252 252 250 249 246 246 246 246 247 246 246 246 247 246 245 245 245 245
Wind_Speed
21 20 20 19 20 19 18 20 19 21 19 20 18 18 15 16 16 10 4 7 6 5 8 7 7 8 2 3 5 5 5 4 3 2 4 5 4 4 1 3 7 6 4 9 5 5 11 22 17 6 12 11 8 9
22 21 22 21 19 17 19 19 21 20 18 19 18 19 18 17 17 11 4 4 6 5 6 3 7 13 10 12 7 5 6 6 5 3 1 2 2 2 4 8 5 5 6 4 3 7 20 13 8 14 1 4 5 9
24 24 22 23 20 19 20 21 20 20 19 20 19 19 19 18 18 15 4 5 2 5 6 7 12 14 12 14 14 10 4 7 6 5 4 4 6 5 3 8 4 5 8 4 5 8 13 17 15 8 5 9 9 5
24 26 25 24 23 22 19 20 21 21 22 19 21 21 20 20 20 19 4 4 5 3 4 7 2 5 9 14 16 15 17 5 1 3 5 5 6 8 6 9 11 8 1 7 11 17 18 13 9 3 8 3 9 12
25 25 25 25 25 24 22 21 22 18 21 20 19 20 22 21 21 13 4 6 8 5 3 5 3 6 6 8 13 15 14 14 9 6 5 5 4 2 4 5 10 13 18 13 16 18 14 17 12 7 3 7 8 11
26 26 25 24 25 26 25 24 20 21 18 20 21 20 20 19 19 2 4 5 10 7 2 5 4 9 16 18 16 13 13 10 7 3 4 4 8 5 6 6 12 14 17 21 18 6 6 12 13 1 9 13 13 14
27 25 25 24 23 23 23 22 22 20 18 18 19 19 19 19 8 5 4 4 9 6 3 4 5 5 8 7 3 4 5 5 6 7 6 8 8 9 8 15 15 16 18 6 3 5 11 3 6 14 14 14 15 16
24 27 25 23 23 23 21 22 23 21 18 18 18 18 18 19 16 10 9 13 8 3 4 5 5 4 2 3 4 4 4 2 5 4 1 6 6 5 10 15 18 7 3 0 5 6 9 14 14 11 12 13 18 19
27 26 25 24 23 23 21 19 20 20 17 17 17 17 5 4 4 4 8 14 5 5 4 4 5 6 1 2 0 2 3 3 2 5 6 4 4 7 7 4 5 7 5 8 11 9 8 9 15 14 14 15 16 20
19 20 24 23 24 23 20 17 19 18 15 14 5 3 3 4 3 2 4 2 5 5 6 5 3 4 5 3 3 3 1 4 3 6 2 3 8 10 7 8 6 7 8 9 8 8 12 16 13 17 16 15 16 19
20 19 21 24 25 23 19 18 17 15 12 3 4 4 1 2 3 2 4 5 3 3 2 4 6 3 4 4 4 4 4 1 3 7 7 2 4 4 6 6 6 7 7 8 8 12 13 15 18 20 23 20 19 20
21 21 20 16 16 20 20 18 17 9 4 6 4 3 2 2 2 5 5 1 3 7 3 4 4 4 2 2 4 3 4 2 6 1 5 3 3 5 5 6 7 8 9 10 9 13 15 17 16 18 19 21 20 20
19 18 18 19 20 20 20 19 18 15 9 2 4 6 4 3 6 8 7 3 2 3 2 1 1 1 1 2 1 3 4 7 3 3 6 5 3 4 5 6 7 7 8 11 14 13 15 17 16 17 18 17 20 19
17 17 18 17 17 17 19 18 18 14 5 5 6 7 7 5 5 6 7 6 2 3 2 2 1 3 2 1 2 3 6 4 3 4 8 1 2 5 5 6 7 12 11 12 14 15 15 16 16 16 16 16 16 17
16 16 17 16 17 17 18 19 19 6 5 6 5 7 5 2 4 1 2 5 3 0 2 2 3 0 1 3 3 2 3 5 7 7 2 3 4 7 8 8 9 11 11 12 12 13 15 15 15 16 15 14 14 15
13 10 7 13 14 16 19 17 9 4 4 4 3 3 2 4 2 2 2 3 2 0 2 3 2 1 5 3 3 6 4 7 5 3 3 2 4 4 5 7 9 10 11 12 12 13 14 14 14 15 14 12 12 13
11 4 8 11 11 13 16 4 3 3 1 5 3 2 1 3 5 2 1 2 1 4 3 3 5 12 2 2 4 4 6 3 3 4 3 3 4 8 7 8 10 10 10 11 11 12 12 13 12 11 12 12 11 11
2 2 3 5 4 4 3 3 4 5 6 4 0 1 3 2 5 2 0 1 3 3 3 4 2 2 6 6 5 3 1 2 2 2 4 4 5 7 6 9 10 9 9 10 10 11 11 10 10 8 10 10 10 9
7 6 12 7 8 4 3 4 4 6 3 2 2 2 3 2 3 4 2 3 2 1 3 3 3 4 4 2 4 3 2 2 2 3 4 5 5 6 8 7 7 5 9 10 10 8 8 9 8 7 7 7 7 7
13 23 16 17 10 4 5 4 3 6 4 2 3 4 1 2 2 1 3 4 3 2 3 2 4 4 3 2 1 2 2 2 1 3 4 4 4 4 5 6 6 8 7 8 8 10 8 7 7 7 6 6 6 7
8 10 14 8 6 7 5 3 5 3 4 4 3 2 1 3 3 4 2 2 4 1 1 3 3 2 1 0 0 1 2 2 3 4 4 4 4 5 5 5 7 5 5 6 7 9 9 8 8 7 7 6 6 6
4 10 4 7 6 5 6 6 2 3 4 2 3 3 3 3 2 2 1 5 1 4 4 3 2 1 1 1 2 3 3 1 3 2 4 4 3 4 5 5 6 6 6 6 7 8 7 8 8 7 7 7 8 7
7 6 6 8 7 6 1 2 6 5 5 1 3 4 2 1 3 1 2 2 4 3 3 3 2 2 2 2 1 2 4 1 1 1 2 2 2 2 3 4 4 5 6 6 7 7 7 11 10 9 8 8 7 7
12 10 9 7 6 2 4 6 4 4 4 5 4 2 3 1 2 4 1 3 4 1 1 1 2 2 3 2 0 1 1 0 1 1 1 2 2 2 3 3 2 3 3 5 6 6 7 7 10 7 8 7 8 7
10 11 7 7 4 6 6 5 6 6 3 2 4 3 2 3 3 1 3 4 1 2 2 1 2 2 3 2 1 1 2 1 1 2 2 0 1 2 2 2 1 1 3 4 6 7 7 6 6 7 7 7 8 7
11 5 5 1 4 5 0 4 2 2 2 3 1 2 3 3 2 5 4 4 3 4 4 4 4 2 1 2 1 1 2 1 1 2 2 2 1 0 2 3 3 1 2 2 3 5 6 6 5 7 6 6 6 5
6 4 3 0 3 3 4 2 1 4 3 2 2 2 3 1 4 5 3 3 2 3 3 4 4 3 2 2 2 2 2 2 4 4 3 3 3 3 2 2 3 3 3 2 2 3 4 6 5 4 4 3 3 2
3 2 4 4 4 2 5 2 2 2 2 1 3 1 6 7 5 3 4 2 2 2 2 2 2 2 2 2 2 2 2 1 3 2 2 2 3 3 4 4 4 8 4 3 4 5 4 5 5 4 3 4 4 3
3 3 2 4 4 4 1 3 4 3 3 4 4 3 5 4 3 2 3 2 2 2 2 2 2 1 1 2 2 3 2 2 0 1 2 3 3 3 3 3 3 3 3 3 8 7 7 8 3 3 4 4 4 3
3 1 4 1 3 1 3 3 3 3 1 2 1 3 3 4 4 2 1 2 3 4 3 2 2 3 3 2 3 4 2 4 5 4 4 4 4 2 2 3 4 4 2 2 5 5 7 4 5 4 3 3 2 3
1 3 3 2 2 3 3 2 2 1 2 1 1 3 4 5 6 3 4 3 3 3 2 2 3 3 3 3 3 2 5 3 6 8 6 4 4 5 5 5 5 3 3 3 3 3 4 3 3 4 5 7 7 5
3 2 2 2 3 3 4 3 1 1 3 2 3 2 4 4 4 4 3 4 3 3 6 4 4 7 6 6 3 4 5 3 3 5 8 5 6 7 6 6 4 3 4 5 5 5 5 7 6 5 6 9 8 8
2 1 0 1 4 4 4 3 4 4 2 2 3 2 2 3 6 5 3 3 4 4 5 5 6 3 5 6 6 5 6 6 7 10 11 12 13 12 7 5 5 5 6 6 6 5 7 8 9 9 9 9 10 9
Wind_Direction
258 257 259 261 260 260 253 255 267 268 260 256 247 245 240 242 241 235 221 190 179 246 258 206 215 220 202 169 174 245 15 340 32 141 152 231 191 218 204 242 312 283 284 300 325 308 252 8 345 356 287 311 299 336
259 260 258 259 257 262 264 264 265 261 261 257 251 246 242 247 248 243 213 197 202 216 238 201 229 243 236 239 231 200 207 184 221 93 309 73 318 355 174 273 214 268 197 229 192 253 295 309 289 300 331 311 330 318
254 253 256 255 253 259 259 265 264 265 255 256 252 248 248 246 251 247 203 167 184 237 246 232 239 224 229 228 220 240 220 210 218 178 185 216 221 129 198 233 244 271 257 219 300 258 270 288 291 261 341 327 320 292
254 256 258 258 255 253 256 260 263 263 266 256 254 248 247 250 250 248 182 178 213 234 241 265 328 203 218 215 217 215 231 230 196 171 222 208 229 193 215 240 238 230 274 239 267 279 278 272 283 359 307 319 317 314
259 257 256 253 250 253 256 257 259 252 263 270 266 260 249 248 251 253 209 197 201 213 272 282 234 227 240 193 208 219 228 237 235 227 216 230 218 187 219 249 250 240 249 255 260 274 288 287 303 341 287 311 303 289
259 257 256 255 249 247 243 250 257 266 258 262 265 256 254 250 248 115 243 214 194 190 214 255 272 216 223 228 227 214 215 222 222 214 228 225 224 216 238 240 248 243 249 251 264 290 260 274 288 158 335 319 306 299
259 261 255 256 255 249 247 251 255 255 259 259 258 256 254 255 238 202 192 197 160 147 234 252 262 257 213 197 201 207 187 208 210 239 228 241 246 241 257 261 261 259 260 285 78 339 274 216 302 321 308 308 302 289
257 259 257 250 247 250 246 239 247 256 258 257 255 255 257 256 254 230 225 211 129 172 203 244 259 348 172 176 203 174 176 134 207 220 310 233 250 228 248 252 256 298 12 245 26 352 295 297 299 302 310 308 306 299
264 255 256 248 240 245 248 244 244 251 249 257 255 256 274 224 211 222 219 218 192 183 216 189 180 223 178 242 246 24 145 166 178 206 224 176 209 230 232 293 55 33 30 335 325 307 296 297 299 301 309 307 296 296
262 259 259 246 239 242 246 240 242 247 246 248 240 194 213 220 119 96 43 143 198 199 221 234 148 214 146 186 221 117 193 205 191 239 82 197 235 243 68 70 58 33 22 3 351 336 320 304 304 305 301 301 296 296
262 262 270 252 232 238 240 235 237 234 232 171 201 207 105 221 118 85 194 197 217 226 198 212 186 186 206 147 194 226 186 188 151 252 155 292 281 115 61 48 24 5 355 336 310 292 292 289 298 305 305 303 298 295
262 257 253 242 240 238 230 230 224 210 174 182 149 120 161 153 164 181 195 221 197 214 282 164 219 194 239 112 135 216 165 95 227 107 90 256 234 79 25 348 337 336 322 306 296 293 293 292 291 290 289 290 291 291
265 264 259 245 239 235 234 226 223 218 182 103 204 180 189 172 189 180 177 194 239 215 224 24 294 175 20 69 91 122 163 218 83 91 214 224 69 16 343 323 317 315 304 305 303 295 291 291 288 285 287 288 291 289
262 261 254 239 234 231 229 225 225 224 180 187 179 211 186 176 221 185 177 176 170 130 149 147 271 138 216 122 196 206 228 107 189 211 231 220 275 288 305 315 320 319 313 303 296 299 298 296 294 295 289 293 297 305
264 254 242 229 221 226 232 232 225 199 203 208 172 206 202 132 40 177 138 89 336 305 81 42 4 20 260 234 209 231 235 242 205 218 178 243 303 311 315 315 306 304 305 302 299 298 296 297 299 299 299 308 309 308
254 246 229 236 245 248 243 239 216 141 194 185 77 113 354 89 326 9 46 108 287 46 54 58 106 90 252 210 216 218 156 223 232 213 235 286 274 275 281 293 292 291 292 292 294 294 297 300 300 300 311 317 314 314
238 195 222 243 268 252 217 118 139 138 84 121 120 84 42 356 105 131 129 145 358 71 167 122 146 214 343 249 238 196 209 209 208 267 248 256 281 296 294 297 296 289 288 292 296 302 298 298 301 313 320 322 322 319
94 282 327 259 163 117 50 28 95 71 67 38 43 55 47 318 94 61 188 34 83 108 109 198 99 138 202 195 253 231 250 249 242 249 294 286 281 287 281 279 288 286 292 303 304 303 304 319 324 325 323 326 325 331
94 61 6 269 127 84 74 48 33 96 77 96 82 47 54 39 8 53 57 28 54 186 93 64 121 210 230 188 186 243 239 185 252 301 290 280 275 280 286 287 282 307 316 317 319 314 323 327 322 326 331 333 336 338
64 40 37 37 73 79 70 48 50 87 119 134 59 67 82 119 241 47 44 31 62 73 66 168 208 205 168 160 155 197 221 204 139 333 293 291 280 288 296 314 336 324 324 328 332 340 342 342 343 341 342 347 348 353
34 359 22 44 55 63 80 34 61 87 111 100 187 92 63 6 31 35 19 347 56 121 190 213 203 223 151 201 44 200 266 194 206 193 228 296 317 321 321 345 344 340 347 345 349 346 355 349 338 338 346 354 0 1
3 20 53 25 75 65 71 21 77 103 73 135 58 71 46 40 356 310 227 58 191 230 188 170 212 170 16 275 216 204 247 219 256 257 276 284 312 332 343 354 355 351 350 359 348 346 344 345 345 347 358 359 4 14
20 27 52 18 84 48 14 4 71 20 87 302 29 54 13 13 241 344 56 212 245 237 191 177 196 176 185 283 347 299 212 174 357 327 314 311 294 318 338 353 14 357 352 352 342 345 349 355 355 2 1 12 10 14
32 45 33 36 34 56 7 23 26 50 46 41 61 47 354 263 319 52 252 258 248 322 92 211 106 51 2 16 81 235 286 27 301 262 320 330 354 337 328 329 5 7 346 313 327 340 353 358 358 4 9 9 13 16
71 354 31 10 5 53 42 19 1 50 73 312 80 19 324 22 49 360 235 267 266 232 226 193 115 143 151 223 239 238 199 134 287 283 222 226 308 300 334 328 318 98 353 347 354 346 347 350 355 357 6 9 4 1
67 313 53 313 335 73 192 75 46 139 96 51 32 281 27 71 56 252 237 218 213 188 188 177 166 150 220 201 190 237 236 206 266 251 231 191 216 280 333 342 339 311 58 353 323 322 329 336 337 347 347 349 355 350
68 348 328 229 129 115 61 37 69 80 80 129 242 43 69 102 252 253 277 236 180 212 177 158 156 168 178 195 230 240 228 213 226 259 282 232 219 205 197 240 301 278 311 273 265 245 285 309 313 318 311 303 271 284
128 42 81 299 43 20 117 67 79 141 198 244 77 155 173 196 238 240 214 244 193 139 121 152 164 163 184 222 229 259 275 265 285 284 287 259 230 215 215 236 246 279 302 276 274 272 263 285 288 295 279 287 292 275
44 320 67 23 13 29 136 146 205 237 193 112 147 242 248 235 236 228 258 213 149 110 130 174 253 187 257 277 265 244 221 170 71 333 304 289 321 294 203 223 252 272 266 276 292 307 298 295 259 256 261 260 279 283
332 18 83 66 91 286 249 166 212 255 244 195 195 317 299 275 248 221 171 128 158 197 201 185 181 175 214 197 281 306 245 196 200 188 197 233 229 233 209 252 266 260 244 254 281 296 312 360 331 343 338 309 286 282
331 32 52 60 214 257 239 290 312 357 19 358 332 172 252 300 305 247 203 197 159 119 116 235 265 222 190 219 203 249 293 258 214 230 237 255 269 269 267 263 253 241 238 249 270 273 280 280 249 274 287 297 300 304
13 83 121 18 301 291 22 45 349 49 331 18 284 332 319 357 290 280 220 126 115 198 222 185 198 246 208 231 221 234 227 260 230 230 238 240 251 253 255 256 245 218 231 241 236 235 236 252 271 270 279 285 282 281
43 36 64 23 5 3 329 41 20 338 3 334 281 220 226 197 246 279 300 206 182 196 208 213 232 238 219 224 228 240 233 242 252 257 255 250 249 255 255 244 229 223 237 250 252 241 254 256 265 264 259 259 266 266